x

West Dixon Entrance (46205) Wave Buoy

12:00am - Thu 29th Sep 2016 All times are PDT. -7 hours from GMT.

  • Sig Wave height 5.2ft
  • Peak Period 11s
  • Wind
    18mph, 22mph gusts
  • Sea Temp 58°f
  • Air Temp 56°f
  • Sea Pressure 1021.6mb
  • West Dixon Entrance
  • West Dixon Entrance

More Historic Weather Station data

Upgrade to MSW Pro to gain access to the past 30 days of data for over 8000 Wavebouys and Weather Stations around the globe.

Join Pro

Comparision Forecast

View Surf forecast
   
Thu 09/29 12:00am 5ft 11s 18 22 mph 1021.6mb 58f 56f
Wed 09/28 11:00pm 5.5ft 11s 20 22 mph 1021.6mb 58f 56f
10:00pm 5.5ft 11s 18 20 mph 1021.5mb 58f 56f
9:00pm 6ft 10s 18 22 mph 1021.4mb 58f 55f
8:00pm 7ft 11s 20 25 mph 1021.1mb 58f 55f
7:00pm 7ft 9s 22 27 mph 1020.8mb 58f 55f
6:00pm 6.5ft 9s 22 25 mph 1020.6mb 58f 54f
5:00pm 6ft 10s 20 22 mph 1020.5mb 59f 55f
4:00pm 5.5ft 8s 16 20 mph 1020.4mb 58f 56f
3:00pm 5.5ft 8s 16 20 mph 1020.1mb 58f 56f
2:00pm 5ft 8s 13 18 mph 1020.2mb 58f 54f
1:00pm 5ft 8s 13 18 mph 1020.3mb 58f 54f
12:00pm 5ft 8s 13 18 mph 1020.3mb 58f 54f
11:00am 5.5ft 8s 13 18 mph 1020.2mb 58f 54f
10:00am 5.5ft 8s 16 18 mph 1019.9mb 58f 54f
9:00am 5ft 9s 20 25 mph 1019.5mb 58f 55f
8:00am 5ft 9s 20 25 mph 1019.4mb 58f 55f
7:00am 5ft 9s 20 25 mph 1019.6mb 59f 55f
6:00am 5ft 8s 20 25 mph 1019.8mb 58f 55f
5:00am 5ft 9s 18 20 mph 1020mb 58f 54f
4:00am 6ft 8s 16 18 mph 1020.1mb 59f 55f
3:00am 5ft 7s 20 25 mph 1020.1mb 59f 55f
2:00am 5.5ft 7s 18 20 mph 1020.1mb 59f 57f
1:00am 5.5ft 8s 16 18 mph 1020.5mb 58f 57f
12:00am 5.5ft 7s 18 22 mph 1020.8mb 58f 57f
Tue 09/27 11:00pm 6ft 8s 16 18 mph 1020.9mb 58f 57f
10:00pm 5.5ft 8s 16 20 mph 1021.3mb 58f 56f
9:00pm 5ft 8s 13 16 mph 1021.4mb 58f 57f
8:00pm 5ft 8s 9 11 mph 1021.6mb 58f 55f
7:00pm 5.5ft 8s 11 13 mph 1021.8mb 58f 55f
6:00pm 5.5ft 8s 13 16 mph 1022.2mb 59f 56f
5:00pm 5ft 8s 13 18 mph 1022.7mb 59f 54f
4:00pm 5.5ft 8s 16 20 mph 1022.8mb 59f 57f
3:00pm 5ft 8s 18 22 mph 1023.2mb 59f 56f
2:00pm 5ft 8s 16 18 mph 1023.3mb 59f 57f
1:00pm 6ft 7s 9 11 mph 1023.7mb 59f 54f
12:00pm 6ft 8s 20 25 mph 1023.5mb 59f 54f
11:00am 5.5ft 9s 9 11 mph 1023.6mb 59f 56f
10:00am 6ft 7s 9 13 mph 1023.5mb 59f 56f
9:00am 6ft 6s 9 11 mph 1023.3mb 58f 56f
8:00am 6ft 7s 9 13 mph 1023.1mb 58f 55f
7:00am 6ft 8s 18 20 mph 1022.9mb 58f 55f
6:00am 6ft 8s 13 18 mph 1022.7mb 58f 54f
5:00am 6ft 8s 9 11 mph 1022.4mb 58f 55f
4:00am 6ft 10s 16 18 mph 1022mb 58f 56f
3:00am 6ft 10s 16 18 mph 1021.5mb 58f 56f
2:00am 5.5ft 9s 18 22 mph 1020.8mb 58f 56f
1:00am 6ft 16s 18 22 mph 1020.2mb 58f 55f
12:00am 6ft 16s 18 22 mph 1019.6mb 58f 56f
Mon 09/26 11:00pm 5.5ft 10s 18 22 mph 1019mb 58f 56f
10:00pm 5.5ft 9s 18 22 mph 1018.4mb 58f 56f
9:00pm 5.5ft 16s 16 20 mph 1018mb 59f 55f
8:00pm 6ft 8s 13 18 mph 1017.5mb 59f 55f
7:00pm 5.5ft 9s 16 20 mph 1016.9mb 59f 55f
6:00pm 6ft 9s 13 16 mph 1016.5mb 59f 55f
5:00pm 7ft 8s 13 16 mph 1016.5mb 59f 55f
4:00pm 6.5ft 9s 22 27 mph 1016.1mb 59f 54f
3:00pm 6.5ft 10s 13 16 mph 1015.6mb 59f 56f
2:00pm 6ft 10s 13 18 mph 1015.3mb 59f 56f
1:00pm 6.5ft 9s 16 18 mph 1015mb 58f 55f
12:00pm 6.5ft 8s 16 18 mph 1014.3mb 58f 56f
11:00am 7ft 17s 16 18 mph 1013.6mb 58f 56f
10:00am 6.5ft 9s 13 18 mph 1013.1mb 58f 56f
9:00am 7ft 9s 16 20 mph 1012.7mb 58f 56f
8:00am 6.5ft 8s 13 18 mph 1012.4mb 58f 56f
7:00am 7ft 8s 13 16 mph 1011.8mb 58f 56f
6:00am 7ft 8s 16 20 mph 1011.5mb 58f 56f
5:00am 7ft 8s 16 20 mph 1011.2mb 58f 56f
4:00am 7.5ft 8s 16 18 mph 1010.7mb 59f 56f
3:00am 8ft 10s 13 16 mph 1010mb 59f 55f
2:00am 8ft 8s 13 18 mph 1009.4mb 59f 55f
1:00am 8ft 8s 16 20 mph 1008.9mb 58f 55f
12:00am 9ft 6s 16 20 mph 1008mb 58f 54f
Sun 09/25 11:00pm 9ft 8s 18 22 mph 1006.5mb 58f 54f
10:00pm 9ft 8s 22 29 mph 1005.9mb 58f 54f
9:00pm 7ft 9s 27 36 mph 1004.5mb 58f 54f
8:00pm 7ft 9s 27 31 mph 1003.8mb 58f 54f
7:00pm 7ft 10s 25 29 mph 1004mb 58f 54f
6:00pm 7.5ft 10s 22 29 mph 1005mb 58f 55f
5:00pm 7.5ft 10s 20 25 mph 1007.8mb 58f 55f
4:00pm 8ft 10s 13 18 mph 1009.5mb 58f 55f
3:00pm 9ft 10s 13 16 mph 1010.8mb 58f 55f
2:00pm 8.5ft 8s 13 18 mph 1012.3mb 58f 56f
1:00pm 8.5ft 10s 7 9 mph 1013.7mb 58f 55f
12:00pm 8.5ft 11s 4 7 mph 1014.7mb 58f 55f
11:00am 8ft 9s  -  2 mph 1014.9mb 58f 55f
10:00am 8ft 9s  -  2 mph 1014.3mb 58f 55f
9:00am 8ft 10s 2 4 mph 1014.5mb 58f 55f